Regional Weather Roundup
Issued by NWS

Home | Current Version | Previous Version | Graphics & Text | Print | Product List | Glossary On
Versions: 1 2 3 4 5 6 7 8 9 10 11 12 13 14 15 16 17 18 19 20 21 22 23 24 25 26 27 28 29 30 31 32 33 34 35 36 37 38 39 40 41 42 43 44 45 46 47 48 49 50
000
ASUS43 KBIS 260701
RWRND

NORTH DAKOTA REGIONAL WEATHER ROUNDUP
NATIONAL WEATHER SERVICE BISMARCK ND
100 AM CST MON JAN 26 2015

NOTE: "FAIR" INDICATES FEW OR NO CLOUDS BELOW 12,000 FEET WITH NO
SIGNIFICANT WEATHER AND/OR OBSTRUCTIONS TO VISIBILITY.


NDZ001>003-009>011-017-260800-
NORTHWEST NORTH DAKOTA

CITY           SKY/WX    TMP DP  RH WIND       PRES   REMARKS
WILLISTON      PTCLDY    38  33  82 SE5       29.86R
MINOT          PTCLDY    38  31  76 W14       29.75R
MINOT AFB      PTCLDY    38  36  93 NW21      29.74R
$$

NDZ018>021-031>035-040>046-260800-
SOUTHWEST NORTH DAKOTA

CITY           SKY/WX    TMP DP  RH WIND       PRES   REMARKS
BISMARCK       PTCLDY    38  32  79 NW12      29.78R
DICKINSON      CLEAR     42  34  73 W17       29.83R
GARRISON         N/A     40  34  79 NW20      29.77R
HETTINGER ARPT CLEAR     40  33  76 W16       29.88R
$$

NDZ004>008-012>016-024-026-027-054-260800-
NORTHEAST NORTH DAKOTA

CITY           SKY/WX    TMP DP  RH WIND       PRES   REMARKS
GRAND FORKS    CLEAR     29  26  89 S9G18     29.63F
GRND FRKS AFB  CLEAR     29  26  90 SW8       29.62F
DEVILS LAKE    CLOUDY    37  32  81 NW24      29.64R
$$

NDZ022-023-025-028>030-036>039-047>053-260800-
SOUTHEAST NORTH DAKOTA

CITY           SKY/WX    TMP DP  RH WIND       PRES   REMARKS
FARGO          MOCLDY    30  25  81 S22G31    29.65F WCI  17
JAMESTOWN      CLOUDY    39  31  72 W12       29.67F
$$




USA.gov is the U.S. government's official web portal to all federal, state and local government web resources and services.